GFSFLT2_con_3kmhel_162.txt.gz
Helicity
200 174 156 146 149 139 131 115 77 50 37 43 40 37 48 69 80 82 87 87 91 80 68 72 73 76 68 35 33 34 36 32
287 240 213 153 118 172 154 129 125 100 58 30 39 56 43 26 32 59 70 75 83 76 61 57 64 58 61 34 29 42 44 38
292 296 253 201 159 139 144 143 131 109 86 71 44 43 49 59 48 24 39 64 72 73 67 56 62 57 57 37 26 40 43 43
275 263 233 187 152 131 131 127 133 116 93 79 72 55 50 41 51 57 38 39 64 75 64 56 67 72 70 44 45 33 41 47
276 219 160 131 111 82 56 67 81 86 141 173 99 66 54 65 79 84 87 69 71 75 94 81 67 84 81 66 54 41 37 50
197 163 122 117 73 70 74 75 87 80 89 113 116 124 97 84 89 86 103 111 95 82 87 108 84 70 88 90 57 54 53 48
194 169 141 107 88 90 97 97 80 86 94 117 108 124 143 163 123 128 129 123 115 112 104 109 117 94 86 102 82 63 56 65
162 142 87 46 40 49 56 84 103 85 62 82 113 86 69 67 107 123 126 134 136 124 137 142 135 135 89 96 109 87 77 73
211 163 114 80 59 23 -14 -22 -18 -5 16 18 67 53 69 69 74 78 103 195 112 133 128 129 149 177 139 128 122 117 94 93
197 182 166 132 80 -4 -31 -35 -34 -31 -0 3 30 25 53 53 40 33 76 86 135 162 139 138 121 178 164 160 171 160 133 125
172 156 162 138 107 68 26 -14 -38 -20 -6 -5 6 44 53 35 19 54 75 57 84 102 193 139 137 134 159 172 190 188 188 176
158 127 112 111 74 59 35 22 33 32 18 37 45 9 27 7 24 73 54 36 54 93 90 113 275 141 149 162 172 209 197 205
173 132 74 35 16 11 -18 -9 14 33 40 63 71 104 96 26 -5 -16 48 72 56 85 95 75 60 328 176 181 219 170 199 206
105 29 -9 -29 -83 -136 -148 -114 -118 -80 -12 27 66 92 79 50 -10 -25 13 20 60 56 50 71 69 37 298 188 217 259 180 190
6 -48 -60 -64 -52 -58 -52 -100 -4 15 55 56 64 48 43 36 38 7 -25 -1 17 12 43 63 31 62 176 165 201 559 291 253
-3 -27 -40 -29 -40 -17 -17 -41 -19 3 -3 4 40 55 55 40 32 23 15 -7 -23 10 -12 47 44 35 77 93 172 189 279 255
-51 -60 -41 -24 -13 -11 -15 2 -14 -14 -13 -9 11 16 21 19 4 2 2 -8 10 -2 5 30 50 49 73 67 96 146 177 250
-56 -22 -28 -15 -7 -9 -20 -27 -31 -25 -16 -10 2 9 -11 3 -4 -14 -14 -2 26 25 37 13 22 79 89 111 105 100 101 159
-5 10 9 -9 -23 -25 -40 -49 -33 -7 -0 -4 6 -11 -10 -38 -52 19 54 53 45 37 59 67 8 50 100 98 130 112 142 155
3 -6 -6 -19 -27 -13 1 -5 6 -3 -5 3 -12 -13 -9 -28 -19 2 27 47 74 87 32 8 12 -3 57 100 112 111 139 150

GFSFLT2_con_3kmhel_165.txt.gz
Helicity
174 164 154 122 134 137 148 155 131 106 92 71 53 31 21 22 31 35 38 41 42 43 47 50 57 54 33 41 37 34 23 30
250 211 185 160 121 167 183 187 178 151 120 90 73 58 37 23 27 28 32 44 47 35 32 44 45 55 36 35 32 28 22 24
271 258 216 156 109 131 124 141 174 179 155 128 92 79 62 44 36 40 31 33 41 53 37 36 46 43 31 26 33 32 31 24
210 176 162 114 84 89 75 92 105 109 122 141 121 93 70 66 64 47 39 45 39 44 46 49 45 42 49 38 40 34 34 25
182 148 118 88 64 38 35 46 68 78 104 130 130 115 131 116 90 79 66 66 49 55 52 50 48 52 48 52 42 38 40 37
198 174 142 124 64 56 57 62 61 60 67 95 72 55 77 81 88 98 99 79 62 63 77 65 42 42 47 41 41 48 50 45
217 209 194 151 108 57 39 33 20 19 29 55 62 71 68 62 61 65 81 110 122 92 69 68 71 46 38 50 37 42 45 52
214 206 167 132 104 77 45 25 16 17 16 33 48 40 42 45 53 69 82 75 77 90 114 85 92 89 49 38 46 47 56 52
249 213 188 160 112 73 45 37 20 18 16 38 43 53 56 48 45 65 72 74 89 71 102 132 116 104 93 65 65 59 72 83
245 197 190 156 117 70 42 37 32 34 35 40 64 66 70 45 46 65 80 83 78 96 110 116 177 124 123 118 88 74 76 113
222 178 176 134 85 40 37 39 36 37 42 36 53 53 65 48 49 67 89 86 86 88 104 135 122 134 176 113 115 89 59 98
173 142 135 114 87 74 66 61 72 67 55 68 103 106 90 61 76 95 95 74 83 95 87 102 136 135 115 95 164 123 137 91
211 193 169 129 119 94 71 75 68 76 102 133 133 118 130 129 96 69 64 51 63 60 41 55 87 140 145 100 59 120 124 171
147 90 50 21 -1 -5 -27 -1 23 39 60 62 72 91 108 101 101 84 81 47 25 23 47 31 18 75 71 111 62 50 71 265
99 65 49 46 35 24 21 -5 14 34 48 49 52 54 65 69 72 60 56 38 28 17 17 48 47 38 97 73 61 145 174 165
70 55 44 32 32 29 30 12 30 31 29 43 61 69 72 80 78 63 39 15 17 31 48 46 40 49 32 74 145 149 112 141
58 54 53 47 34 30 17 17 3 -3 5 21 24 31 42 53 56 36 18 -5 6 34 65 60 68 53 44 56 97 122 178 160
33 39 33 29 29 32 25 15 2 -2 7 12 10 5 17 29 42 40 27 -9 -1 35 58 49 82 113 67 35 62 79 101 180
25 32 48 48 41 36 26 16 8 11 26 38 38 47 47 44 49 57 53 15 27 55 68 58 33 43 70 47 53 76 89 115
55 64 70 58 37 32 21 20 24 29 38 45 53 50 47 36 43 53 57 19 35 70 30 45 44 43 43 74 64 44 78 96

GFSFLT2_con_3kmhel_168.txt.gz
Helicity
157 152 138 101 136 162 161 166 157 142 129 113 93 77 56 40 27 29 29 22 19 21 23 22 35 17 24 37 36 33 -5 15
185 162 130 106 86 125 117 129 139 162 160 153 86 62 74 56 40 39 44 32 29 26 28 29 27 31 20 24 41 32 11 7
170 151 128 99 76 74 69 81 83 81 93 112 124 98 85 75 89 82 67 53 43 40 38 39 38 30 31 35 31 26 22 30
136 119 103 74 55 58 55 60 59 72 84 87 72 73 81 98 105 105 76 55 55 59 59 56 60 29 41 42 36 11 25 28
148 129 113 96 73 52 40 35 39 43 73 78 59 48 48 44 33 41 67 115 82 70 59 59 46 58 49 49 23 24 25 27
157 150 145 139 90 74 55 34 19 11 10 25 13 11 20 28 35 47 60 62 80 117 109 61 47 60 49 44 44 21 28 24
189 180 170 150 124 88 71 55 39 28 32 39 42 36 29 21 23 27 32 40 56 75 70 85 100 55 64 53 43 45 29 24
182 179 158 124 105 88 62 47 35 33 37 51 58 49 45 41 41 45 49 44 47 50 73 102 89 104 72 64 65 57 55 45
207 189 168 136 101 73 50 52 47 55 56 63 76 80 72 61 56 61 66 56 62 72 81 89 95 96 129 106 73 77 74 70
227 193 161 117 91 61 49 52 52 63 75 84 98 86 84 70 69 74 76 65 69 81 88 97 105 119 115 115 160 111 76 77
204 174 157 128 101 68 60 66 69 72 76 76 82 87 91 77 76 83 82 72 73 85 96 94 88 108 127 113 125 129 149 119
195 163 148 106 89 71 74 82 85 85 86 91 97 95 104 100 100 87 76 76 83 87 79 71 62 73 80 106 119 99 119 122
192 172 176 136 121 109 70 74 63 69 82 98 108 113 116 112 113 112 105 88 75 62 51 46 51 46 55 92 65 88 91 92
177 158 133 106 75 69 51 61 62 72 75 74 92 88 90 83 91 90 93 78 71 67 42 13 15 34 -5 9 23 123 115 266
155 132 105 94 72 61 57 53 59 78 78 66 65 59 54 56 62 61 65 66 66 58 51 53 31 25 36 31 -7 75 154 171
126 94 86 74 79 75 89 92 100 76 58 57 52 59 60 69 72 71 68 65 55 52 49 45 39 37 71 74 91 98 26 -40
100 88 87 89 92 100 92 90 61 47 40 34 32 38 43 57 66 67 71 67 64 53 39 34 52 75 98 105 110 94 92 81
111 100 96 81 81 82 76 60 39 31 31 21 34 33 43 52 65 64 73 79 86 83 72 73 73 72 66 67 62 60 58 76
102 92 88 75 67 65 59 50 30 29 38 41 37 48 58 50 54 57 65 73 82 90 98 64 70 86 63 58 63 66 67 63
103 98 95 82 84 79 62 52 43 39 45 42 41 50 37 44 63 51 54 65 72 87 86 89 85 80 40 57 74 81 67 65

GFSFLT2_con_3kmhel_174.txt.gz
Helicity
106 87 86 89 99 93 90 87 83 78 71 69 68 66 65 63 74 83 67 56 40 31 34 34 40 44 40 42 43 38 56 44
121 117 98 68 55 50 57 58 58 82 86 118 63 42 52 61 45 36 33 52 54 41 34 40 44 45 50 48 62 66 80 66
102 98 88 61 47 42 40 52 59 70 96 122 91 81 61 67 65 57 44 33 24 39 47 39 37 47 52 78 107 123 97 58
92 100 124 71 72 73 59 71 61 43 62 89 78 45 58 68 68 73 78 63 53 72 64 70 71 59 36 20 76 114 101 49
96 85 107 102 80 83 71 68 55 42 40 66 67 41 47 71 54 82 71 44 38 48 67 49 44 64 64 63 65 73 95 149
111 106 106 116 91 96 95 65 70 42 35 55 57 46 57 71 72 92 85 54 85 63 87 79 88 77 53 34 50 34 59 40
158 139 138 127 124 103 94 96 59 65 45 50 57 64 66 71 83 84 93 74 94 89 94 95 109 94 87 72 37 53 32 33
146 152 146 135 129 117 99 94 84 77 55 21 51 54 66 84 87 86 77 81 84 79 83 103 100 104 99 104 101 80 76 67
147 147 155 156 136 133 111 114 101 97 86 61 51 32 39 60 64 64 66 103 105 108 103 101 107 94 105 100 97 88 77 76
186 176 168 158 150 131 102 92 97 83 70 61 64 61 74 97 112 96 78 81 95 98 99 95 94 83 83 90 70 73 88 90
185 187 183 167 142 101 73 69 77 67 64 57 55 61 62 78 99 99 109 110 115 104 90 76 66 67 65 59 56 58 72 65
193 191 180 151 127 97 111 103 87 83 75 64 79 83 95 98 104 107 102 110 102 102 99 99 81 78 60 45 54 77 45 125
200 203 191 156 157 150 143 126 106 100 91 88 103 87 100 104 104 106 97 100 107 118 88 85 68 59 5 11 -5 6 34 105
202 216 226 215 154 129 103 90 85 88 93 93 104 80 64 71 64 69 76 65 79 83 107 71 51 47 18 -10 -51 -43 65 7
245 238 223 203 145 131 112 94 105 120 100 110 91 93 90 82 92 101 96 101 74 64 69 70 40 51 72 20 -15 25 -16 -66
262 239 198 185 186 154 146 138 131 100 107 117 97 118 96 123 128 98 92 103 103 69 57 48 47 38 43 61 89 80 31 -37
246 235 214 192 179 173 153 135 108 101 106 103 111 100 113 110 75 90 99 78 68 68 63 65 63 62 57 68 79 96 101 95
213 217 224 201 181 159 142 128 98 102 100 99 104 85 97 98 112 100 82 79 64 46 49 46 53 60 65 71 72 67 68 76
203 223 222 196 173 148 128 117 89 83 103 101 85 95 92 108 98 84 67 74 68 63 49 45 52 58 59 60 68 78 74 70
204 230 233 181 158 133 122 106 95 88 113 92 89 107 100 96 102 87 70 73 80 59 57 58 67 59 53 57 62 69 71 68

GFSFLT2_con_3kmhel_177.txt.gz
Helicity
106 76 79 92 80 80 81 81 110 127 164 175 99 103 82 87 77 72 71 52 45 47 46 43 31 28 37 38 37 40 50 57
127 122 82 55 36 65 64 86 114 143 177 197 169 138 147 165 147 121 100 95 88 84 54 48 47 47 42 40 60 75 83 80
121 141 103 58 60 70 88 84 105 127 142 178 122 95 111 132 134 167 149 149 141 147 171 120 92 68 47 53 53 79 84 91
153 170 138 118 117 92 98 74 53 86 117 127 103 95 106 117 138 159 106 110 94 106 125 111 123 116 102 61 44 56 51 68
184 154 139 123 147 113 106 90 52 60 94 103 91 84 108 122 135 121 57 111 66 103 108 103 115 91 81 67 77 52 59 36
179 149 146 144 129 128 102 102 57 30 54 76 68 80 105 121 124 86 68 85 114 132 101 103 111 115 102 99 83 89 86 80
199 148 142 148 143 134 144 110 85 32 38 64 61 80 99 113 120 46 63 95 116 93 66 66 77 95 103 121 110 102 93 101
192 184 162 164 160 135 152 115 108 62 42 47 40 28 59 103 83 44 89 121 130 107 87 82 88 92 97 115 130 89 76 81
200 190 185 177 173 135 157 126 111 96 56 68 34 29 66 97 51 31 66 89 83 81 81 88 96 97 96 83 83 107 113 121
232 195 179 181 154 130 144 149 118 95 73 62 54 54 95 118 81 91 78 95 90 84 78 78 76 75 81 90 89 97 134 126
223 197 190 187 161 147 142 149 119 78 44 38 49 43 76 88 87 88 87 96 85 76 75 77 67 59 67 67 86 106 89 100
221 207 202 206 225 199 175 142 109 73 40 34 35 41 76 62 81 87 80 63 47 33 55 58 53 47 50 39 83 93 68 57
235 244 233 233 239 212 188 151 115 95 82 82 50 44 57 75 66 75 80 63 35 30 53 83 73 54 10 30 -16 58 52 90
253 283 303 232 195 175 149 125 134 108 92 97 85 78 60 76 62 44 67 53 45 12 36 36 50 56 21 -38 -47 -51 69 53
246 261 284 291 204 203 176 165 153 136 111 81 98 103 140 103 78 89 78 47 32 19 44 50 30 14 35 -29 -56 -22 -9 -17
268 256 278 308 244 237 211 167 144 103 84 87 109 122 108 88 115 87 62 35 31 42 70 67 57 48 31 54 59 46 -13 -81
295 285 283 284 272 218 187 178 138 107 95 120 117 146 141 115 94 71 66 85 61 58 64 62 51 38 32 38 42 50 45 46
330 304 282 253 237 208 187 176 144 128 120 118 118 124 124 102 79 51 62 88 79 56 61 58 52 55 54 50 36 17 18 29
316 329 287 254 225 199 182 168 154 145 127 116 130 124 112 104 78 61 53 102 90 72 68 79 83 70 65 58 58 55 57 52
292 321 285 244 220 199 175 167 145 131 129 120 134 130 126 115 84 66 82 103 89 73 66 71 69 77 78 59 59 54 51 45

GFSFLT2_con_3kmhel_183.txt.gz
Helicity
107 119 155 182 203 183 165 157 167 177 159 154 164 174 182 174 172 161 156 146 147 149 146 151 168 185 188 154 122 97 67 75
132 148 165 169 164 159 157 162 172 178 168 161 169 169 163 155 141 137 136 132 130 124 123 127 133 142 148 145 143 131 107 83
119 133 153 160 160 148 170 174 171 168 154 161 157 144 135 140 154 153 157 146 147 155 156 149 148 152 155 148 116 86 85 95
148 156 154 171 164 159 171 171 173 157 146 144 144 146 148 134 154 168 163 150 152 156 154 146 125 97 115 138 105 111 96 89
190 198 180 179 163 155 166 166 167 172 167 145 147 145 137 132 114 110 93 113 69 80 91 89 104 92 105 114 128 125 127 114
220 219 217 192 166 169 163 164 156 166 157 151 141 126 127 112 97 80 61 43 43 48 53 66 82 90 94 101 116 124 127 130
249 241 239 203 214 194 199 180 162 140 140 138 119 119 107 80 72 53 48 43 52 62 69 75 82 99 110 117 128 133 136 127
280 275 266 245 240 219 187 155 140 142 133 126 133 104 91 73 61 54 58 62 57 62 66 60 64 80 106 121 128 130 131 141
307 309 279 269 259 227 183 151 127 126 127 134 128 104 82 59 41 42 36 38 27 32 54 57 82 97 102 98 106 129 138 151
337 324 309 291 271 239 209 154 138 131 127 115 119 99 69 44 28 26 18 21 33 44 57 52 62 76 102 106 106 119 134 176
375 334 329 322 302 264 217 181 162 139 129 111 118 104 75 43 18 25 32 45 56 47 31 23 44 71 77 73 88 96 120 163
406 386 378 371 351 325 297 248 198 166 152 133 126 103 70 40 30 35 24 23 28 26 13 18 1 48 38 49 69 86 129 152
440 440 407 435 405 366 316 247 198 189 168 142 133 107 69 33 14 18 9 8 -6 1 -26 4 16 34 -4 66 71 81 125 92
422 419 404 380 353 324 289 239 241 209 172 163 132 96 50 31 10 12 5 -11 0 9 14 -6 -40 -4 -37 -58 48 69 78 80
392 394 371 360 351 390 408 336 317 270 224 193 146 95 60 47 35 18 12 -2 -6 -4 2 21 24 12 0 -22 13 51 39 49
406 384 373 361 365 408 355 339 309 224 203 187 149 111 99 78 51 40 39 34 44 23 28 14 7 36 0 24 19 22 13 22
416 405 390 370 347 362 380 362 316 293 258 227 173 145 116 89 71 62 70 60 56 59 72 89 65 42 34 47 65 64 60 88
471 437 400 390 400 394 371 351 319 300 240 222 173 141 113 101 85 78 82 88 80 77 89 102 77 71 73 76 65 55 65 56
510 445 420 389 417 408 387 358 303 256 215 198 178 148 120 109 92 92 83 85 100 117 110 104 88 79 77 55 57 57 59 52
513 460 427 382 402 425 412 346 295 255 215 204 183 155 130 101 91 93 93 94 115 123 112 96 89 80 73 63 63 67 65 59